Regional Weather Roundup
Issued by NWS

Home | Current Version | Previous Version | Text Only | Print | Product List | Glossary On
Versions: 1 2 3 4 5 6 7 8 9 10 11 12 13 14 15 16 17 18 19 20 21 22 23 24 25 26 27 28 29 30 31 32 33 34 35 36 37 38 39 40 41 42 43 44 45 46 47 48 49 50
000
ASUS43 KLOT 300111
RWRIL

ILLINOIS REGIONAL WEATHER ROUNDUP
NATIONAL WEATHER SERVICE CHICAGO/ROMEOVILLE IL
800 PM CDT SUN MAR 29 2015

NOTE: "FAIR" INDICATES FEW OR NO CLOUDS BELOW 12,000 FEET WITH NO
SIGNIFICANT WEATHER AND/OR OBSTRUCTIONS TO VISIBILITY.

* THESE STATIONS ARE NOT UNDER NWS QUALITY CONTROL. THEY ALSO MAY NOT
  REPORT WEATHER SUCH AS PRECIPITATION OR FOG.

ILZ001-002-007-009-015-016-024-300200-
NORTHWEST ILLINOIS

CITY           SKY/WX    TMP DP  RH WIND       PRES   REMARKS
MOLINE         CLEAR     51  37  58 NW10      29.90R
STERLING*      CLEAR     45  36  70 N5        29.89R
SAVANNA*       CLEAR     47  36  66 CALM      29.88R
$$

ILZ003-004-008-010-011-017-018-300200-
NORTH CENTRAL ILLINOIS

CITY           SKY/WX    TMP DP  RH WIND       PRES   REMARKS
ROCKFORD       PTCLDY    43  33  68 W13       29.87R
FREEPORT*      CLOUDY    44  33  65 W8G16     29.89R
ROCHELLE*      PTCLDY    44  34  69 NW16G25   29.88R
DE KALB*       MOCLDY    42  34  74 NW16G24   29.86R
PERU*          PTCLDY    49  40  68 NW18G26   29.88R
$$

ILZ005-006-012>014-019>023-300200-
NORTHEAST ILLINOIS

CITY           SKY/WX    TMP DP  RH WIND       PRES   REMARKS
CHICAGO-OHARE  CLOUDY    46  37  71 W18G33    29.82R
CHICAGO-MIDWAY CLOUDY    51  37  58 W23G30    29.82R
AURORA         CLOUDY    46  36  68 NW20G30   29.86R
LANSING*       CLOUDY    47  35  61 SW17G24   29.80R
JOLIET*        CLOUDY    52  40  65 W22G35    29.85R
WAUKEGAN       CLOUDY    45  36  70 W12G23    29.79R
DUPAGE AIRPORT CLOUDY    46  36  68 NW23G31   29.83R
KANKAKEE*      CLOUDY    47  39  75 SW18G25   29.84R
WHEELING       CLOUDY    46  37  71 NW17G28   29.83R
MORRIS*        CLOUDY    49  40  70 NW15G33   29.85R
ROMEOVILLE*    CLOUDY    49  38  66 NW29G43   29.84R
NORTHERLY ISL    N/A     49  35  58 W10         N/A
$$

LMZ740>746-300200-
SOUTHERN LAKE MICHIGAN

STATION/POSITION SKY/WX   TEMP    WIND        PRES    VSBY  WAVE
                          AIR SEA DIR/SP/G                  HT/PER
                          (F)     (DEG/KT/KT) (MB)    (MI)  (FT/S)
HARRISON CRIB              48     220/ 22/ 31   N/A
BURNHAM HARBOR             48     280/ 19       N/A
CALUMET HARBOR             47     200/ 16/ 23 1006.7F
BURNS HARBOR               46     200/ 19/ 26 1008.8F
MICHIGAN CITY              45     170/ 17/ 23   N/A
$$

ILZ025>027-034>036-040-047-049-050-058-095>099-300200-
WEST-CENTRAL ILLINOIS

CITY           SKY/WX    TMP DP  RH WIND       PRES   REMARKS
QUINCY         CLEAR     54  40  59 NW16      29.97R
GALESBURG*     CLEAR     49  38  64 W12       29.92R
MACOMB*        CLEAR     50  40  68 W12       29.96R
JACKSONVILLE*  MOCLDY    53  41  65 SW7       29.95R
PITTSFIELD*    MOCLDY    55  41  60 W6        29.97R
$$

ILZ028>032-037-038-041>044-048-051>054-059>061-300200-
CENTRAL ILLINOIS

CITY           SKY/WX    TMP DP  RH WIND       PRES   REMARKS
PONTIAC        CLOUDY    50  41  71 SW14      29.87R
BLOOMINGTON    MOCLDY    51  40  66 W13       29.90R
DECATUR        CLOUDY    51  41  68 SW13      29.93R
PEORIA         PTCLDY    55  41  59 W10       29.91R
LACON*         PTCLDY    51  40  65 NW12G18   29.88R
LINCOLN*       CLOUDY    54  40  59 SW7       29.91R
SPRINGFIELD    CLOUDY    53  40  61 W10       29.93R
TAYLORVILLE    CLOUDY    50  41  71 SW9       29.95R
$$

ILZ033-039-045-046-055>057-062-063-300200-
EAST-CENTRAL ILLINOIS

CITY           SKY/WX    TMP DP  RH WIND       PRES   REMARKS
CHAMPAIGN      CLOUDY    47  40  76 SW14      29.91S
DANVILLE*      CLOUDY    44  39  82 SW12      29.88R
RANTOUL*       CLOUDY    49  41  74 SW13      29.89S
MATTOON        MOCLDY    48  41  76 SW10      29.94R
PARIS*         PTCLDY    44  40  86 SW12      29.94R
$$

ILZ079-100>102-300200-
SOUTHWEST ILLINOIS

CITY           SKY/WX    TMP DP  RH WIND       PRES   REMARKS
ALTON          CLEAR     50  36  57 S9        29.98R
BELLEVILLE     MOCLDY    52  44  74 VRB2      29.98R
CAHOKIA*       CLOUDY    55  41  59 CALM      29.99R
SPARTA*        CLOUDY    51  42  71 S5        30.01S
$$

ILZ064>066-069>071-074>076-080>082-084>086-088>090-092>094-300200-
SOUTH-CENTRAL ILLINOIS

CITY           SKY/WX    TMP DP  RH WIND       PRES   REMARKS
CARBONDALE     CLOUDY    53  42  66 SW9       30.01R
CAIRO*         PTCLDY    56  48  75 S8        30.02F
EFFINGHAM*     PTCLDY    49  40  70 S12       29.99S
MARION         CLOUDY    55  45  67 SW9G16    30.02R
MT. VERNON     CLOUDY    50  41  71 SW12      30.01R
CENTRALIA*     CLOUDY    48  40  73 SW6       30.00R
SALEM*         MOCLDY    51  42  72 SW8       30.00R
METROPOLIS*    MOCLDY    56  46  67 SW8       30.02S
$$

ILZ067-068-072-073-078-083-087-091-300200-
SOUTHEAST ILLINOIS

CITY           SKY/WX    TMP DP  RH WIND       PRES   REMARKS
LAWRENCEVILLE  CLOUDY    51  44  77 SW9       29.99R
FLORA*         CLOUDY    51  41  70 SW8       30.00R
FAIRFIELD*     CLOUDY    51  43  75 SW8       30.01R
HARRISBURG*    CLOUDY    55  43  65 SW10G21   30.03R
ROBINSON*      CLOUDY    47  43  85 SW13      29.99R
CARMI*         LGT RAIN  53  39  59 SW9       30.02R
$$

ABBREVIATIONS USED IN REMARKS
   TC - TEMPERATURE IN CELSIUS
  WCI - WIND CHILL INDEX
   HX - HEAT INDEX
  VSB - VISIBILITY
$$



USA.gov is the U.S. government's official web portal to all federal, state and local government web resources and services.